This is the latest recevied weather packets stored in our database for station/object DO1MIT-10. If no packets are shown the sender has not sent any weather packets the latest 10 day(s).
| Time | Temp. | Humidity | Pressure | Rain* | Wind** | Luminosity | Snow |
|---|---|---|---|---|---|---|---|
| 1787828906 | 26.11° C | 63% | 1020.1 hPa | - | - | - | - |
| 1787828006 | 25.56° C | 64% | 1020.3 hPa | - | - | - | - |
| 1787827106 | 25.56° C | 65% | 1020.5 hPa | - | - | - | - |
| 1787826206 | 25° C | 66% | 1020.6 hPa | - | - | - | - |
| 1787825306 | 25° C | 67% | 1020.5 hPa | - | - | - | - |
| 1787824406 | 24.44° C | 68% | 1020.6 hPa | - | - | - | - |
| 1787823506 | 23.89° C | 69% | 1020.7 hPa | - | - | - | - |
| 1787822606 | 23.89° C | 70% | 1020.9 hPa | - | - | - | - |
| 1787821706 | 23.33° C | 71% | 1021 hPa | - | - | - | - |
| 1787820805 | 22.78° C | 73% | 1020.9 hPa | - | - | - | - |
| 1787819905 | 22.78° C | 74% | 1021 hPa | - | - | - | - |
| 1787819005 | 22.22° C | 75% | 1021 hPa | - | - | - | - |
| 1787818105 | 20.56° C | 77% | 1021.1 hPa | - | - | - | - |
| 1787817205 | 21.11° C | 77% | 1021.1 hPa | - | - | - | - |
| 1787816305 | 20.56° C | 79% | 1021.3 hPa | - | - | - | - |
| 1787815405 | 20° C | 80% | 1021.4 hPa | - | - | - | - |
| 1787814505 | 19.44° C | 80% | 1021.3 hPa | - | - | - | - |
| 1787813605 | 18.33° C | 82% | 1021.3 hPa | - | - | - | - |
| 1787812705 | 17.78° C | 83% | 1021.1 hPa | - | - | - | - |
| 1787811804 | 17.22° C | 84% | 1021.1 hPa | - | - | - | - |
| 1787810904 | 16.11° C | 84% | 1021 hPa | - | - | - | - |
| 1787810004 | 15.56° C | 85% | 1020.9 hPa | - | - | - | - |
| 1787809104 | 14.44° C | 85% | 1021.1 hPa | - | - | - | - |
| 1787808204 | 13.33° C | 86% | 1021.2 hPa | - | - | - | - |
| 1787807304 | 12.78° C | 87% | 1021.2 hPa | - | - | - | - |
* Rain since midnight (hover to see other rain measurements)
** Current wind speed in m/s (hover to see current wind gust speed)